Weather observations for the past three days for
Fort Lauderdale, Fort Lauderdale Executive Airport
Imperial (Metric)
Date Time (edt) Wind (mph) Vis. (mi.) Weather Sky Cond. Temperature (ºF) Relative Humidity Wind Chill (°F) Heat Index (°F) Pressure Precipitation (in)
Air Dwpt 6 hour altimeter (in) sea level (mb) 1 hr 3 hr 6 hr
Max. Min.
13 06:53 Calm 10.00 A Few Clouds FEW030 79 75.9 90% 83 30.15 1021.3
13 05:53 Calm 10.00 Fair CLR 79 75 88% 83 30.14 1020.9
13 04:53 Calm 10.00 Fair CLR 78.1 75 90% 81 30.14 1020.7
13 03:53 Calm 10.00 Fair CLR 79 75 88% 83 30.12 1020.2
13 02:53 Calm 10.00 Fair CLR 80.1 75 85% 85 30.13 1020.6
13 01:53 Calm 10.00 Fair CLR 80.1 75 87.1 80.1 85% 85 30.15 1021.2
13 00:53 Calm 10.00 Fair CLR 80.1 75 85% 85 30.16 1021.5
12 23:53 Calm 10.00 Fair CLR 80.1 75 85% 85 30.16 1021.6
12 22:53 NE 5 10.00 A Few Clouds FEW095 80.1 73.9 82% 85 30.16 1021.5
12 21:53 Calm 10.00 Partly Cloudy SCT036 SCT090 80.1 73.9 82% 85 30.16 1021.5
12 20:53 S 5 10.00 Mostly Cloudy SCT033 BKN040 BKN047 84.9 77 77% 95 30.14 1020.9
12 19:53 S 7 10.00 Partly Cloudy SCT036 87.1 75 93 87.1 67% 97 30.13 1020.5
12 18:53 SW 10 10.00 Mostly Cloudy BKN036 88 75 66% 98 30.1 1019.4
12 17:53 SE 12 10.00 Fair CLR 90 75 62% 100 30.08 1018.8
12 16:53 SE 13 10.00 Partly Cloudy FEW050 SCT065 89.1 73.9 61% 98 30.07 1018.6
12 15:53 Vrbl 6 10.00 Partly Cloudy SCT045 91.9 73.9 56% 102 30.07 1018.6
12 14:53 SE 10 10.00 Fair CLR 90 75 62% 100 30.09 1019.0
12 13:53 S 8 10.00 Partly Cloudy FEW041 SCT049 90 75 91 77 62% 100 30.11 1019.7
12 12:53 Vrbl 6 10.00 Fair CLR 91 73.9 57% 101 30.12 1020.1
12 11:53 Vrbl 5 10.00 A Few Clouds FEW095 87.1 73.9 65% 95 30.12 1020.3
12 10:53 SE 5 10.00 A Few Clouds FEW100 84 73.9 72% 91 30.12 1020.2
12 09:53 S 6 10.00 Mostly Cloudy BKN100 80.1 73.9 82% 85 30.11 1019.7
12 08:53 NW 6 10.00 Mostly Cloudy SCT070 BKN150 79 73 82% 82 30.08 1018.7
12 07:53 Vrbl 3 10.00 Fair CLR 77 73.9 80.1 75.9 90% 78 30.06 1018.3
12 06:53 W 7 10.00 Partly Cloudy SCT110 75.9 73 91% 76 30.05 1017.7
12 05:53 W 12 10.00 Overcast SCT065 OVC090 75.9 73 91% 76 30.02 1016.9
12 04:53 SW 3 10.00 A Few Clouds FEW030 80.1 73.9 82% 85 30.01 1016.4
12 03:53 SW 5 10.00 Fair CLR 80.1 73.9 82% 85 30 1016.2
12 01:53 Calm 10.00 Partly Cloudy SCT095 80.1 73.9 80.1 79 82% 85 30.04 1017.3
12 00:53 SW 3 10.00 A Few Clouds FEW120 80.1 73 79% 84 30.05 1017.8
11 23:53 S 5 10.00 Fair CLR 80.1 73 79% 84 30.05 1017.7
11 22:53 S 3 10.00 Fair CLR 79 73 82% 82 30.03 1017.1
11 21:53 S 7 10.00 A Few Clouds FEW110 79 73 82% 82 30.02 1016.9
11 20:53 SW 5 10.00 Mostly Cloudy FEW095 BKN110 79 73.9 85% 83 30.02 1016.7
11 19:53 S 5 10.00 Partly Cloudy SCT110 80.1 73.9 90 75.9 82% 85 30.01 1016.4 0.16
11 18:53 S 5 10.00 Overcast OVC100 80.1 73 79% 84 29.99 1015.9
11 17:53 Calm 10.00 Mostly Cloudy BKN100 80.1 73 79% 84 30 1016.0
11 16:53 SW 3 10.00 Mostly Cloudy FEW040 BKN100 79 72 79% 82 30 1016.2 0.02 0.16
11 15:53 SW 5 7.00 Rain FEW040 OVC100 78.1 75 90% 81 30.02 1016.7 0.03
11 14:53 W 10 G 20 9.00 Light Rain BKN035 BKN050 OVC065 75.9 73 91% 76 30.02 1016.6 0.11
11 13:53 W 8 10.00 A Few Clouds FEW060 89.1 72 90 82 57% 96 30 1016.3
11 12:53 W 9 10.00 Partly Cloudy FEW034 SCT044 89.1 73.9 61% 98 30.01 1016.5
11 11:53 W 7 8.00 Overcast OVC060 89.1 73 59% 97 30.03 1017.0
11 10:53 SW 5 10.00 Fair CLR 88 72 59% 95 30.02 1016.8
11 09:53 SW 6 10.00 A Few Clouds FEW120 84.9 72 65% 91 30.02 1016.7
11 08:53 SW 5 10.00 Mostly Cloudy BKN150 84 72 67% 90 30 1016.1
11 07:53 Calm 10.00 Mostly Cloudy SCT045 BKN110 82 72 82 79 72% 87 29.99 1015.8
11 06:53 SW 3 10.00 Mostly Cloudy BKN039 BKN055 80.1 72 76% 84 29.98 1015.5
11 05:53 Calm 10.00 Mostly Cloudy BKN041 80.1 70 71% 83 29.96 1014.8
11 04:53 W 5 10.00 A Few Clouds FEW120 80.1 70 71% 83 29.95 1014.5
11 03:53 W 3 10.00 Partly Cloudy SCT110 80.1 70 71% 83 29.96 1014.6
11 02:53 Calm 10.00 Mostly Cloudy FEW038 BKN110 80.1 69.1 69% 83 29.97 1015.2
11 01:53 Calm 10.00 Overcast OVC100 80.1 68 90 75.9 67% 83 29.97 1015.1 0.03
11 00:53 Calm 10.00 Light Rain BKN110 79 66 65% 81 29.99 1015.8
10 23:53 E 8 10.00 A Few Clouds FEW100 79 68 69% 81 30.01 1016.5 0.02
10 22:53 E 9 10.00 Light Rain CLR 79 71.1 77% 82 30.03 1017.1 0.01 0.01
10 21:53 E 14 10.00 Thunderstorm Light Rain SCT042 BKN120 77 72 85% 78 30.03 1017.0
10 20:53 Calm 10.00 Mostly Cloudy SCT033 BKN043 BKN055 87.1 73.9 65% 95 30 1016.2
10 19:53 Calm 10.00 Partly Cloudy SCT050 90 78.1 93.9 90 68% 105 29.98 1015.4
10 18:53 SE 5 10.00 Fair CLR 90 77 66% 103 29.97 1015.0
10 17:53 S 7 10.00 Fair CLR 90 77 66% 103 29.97 1015.2
10 16:53 Calm 10.00 Partly Cloudy SCT047 91.9 77 62% 106 29.98 1015.3
10 15:53 Calm 10.00 Mostly Cloudy SCT033 BKN041 BKN048 91 79 68% 108 29.98 1015.4
10 14:53 Vrbl 5 10.00 Partly Cloudy FEW028 SCT039 91.9 77 62% 106 29.99 1015.8
10 13:53 Vrbl 3 10.00 Partly Cloudy SCT039 SCT048 91.9 77 91.9 84 62% 106 30 1016.0
10 12:53 Vrbl 3 10.00 Partly Cloudy SCT030 91.9 77 62% 106 30.02 1016.7
10 11:53 NW 5 10.00 Fair CLR 90 78.1 68% 105 30.03 1017.1
10 10:53 W 3 10.00 Overcast OVC050 89.1 78.1 70% 103 30.02 1016.9
10 09:53 S 3 10.00 Fair CLR 88 77 70% 100 30.02 1016.8
10 08:53 Calm 10.00 Fair CLR 87.1 75.9 70% 98 30.02 1016.8
10 07:53 Calm 10.00 Fair CLR 84 75.9 84 79 77% 93 30.02 1016.6
Date Time (edt) Wind (mph) Vis. (mi.) Weather Sky Cond. Air Dwpt Max. Min. Relative Humidity Wind Chill (°F) Heat Index (°F) altimeter (in) sea level (mb) 1 hr 3 hr 6 hr
6 hour
Temperature (ºF) Pressure Precipitation (in)